Wind_Speed
17 16 15 14 12 11 10 9 8 7 5 3 2 0 2 3 5 7 9 10 11 12 13 13 14 15 15 15 15 14 13 12 11 10 9 9 8 8 8 7 6 5 5 4
19 19 17 16 14 13 12 11 10 9 7 5 3 2 2 3 4 5 7 8 9 10 10 12 13 13 14 14 14 14 13 12 11 10 9 9 9 8 8 7 7 6 5 4
21 21 19 17 16 14 14 13 13 12 9 8 6 5 4 4 3 4 5 6 7 8 9 10 11 12 13 14 14 14 13 12 11 10 9 9 8 8 8 7 7 6 6 5
24 22 20 19 18 17 16 16 14 13 11 10 8 8 8 6 6 6 5 5 6 7 8 9 10 11 11 12 13 13 13 12 11 11 10 9 9 8 8 7 6 6 6 5
25 24 22 21 20 18 18 17 16 14 13 12 12 10 10 9 8 8 7 6 6 7 7 9 10 10 11 12 12 12 12 11 11 10 10 9 9 8 8 7 6 6 6 6
27 25 24 23 22 21 20 18 17 16 15 15 14 12 12 12 10 9 8 7 7 7 8 9 9 10 11 11 12 11 11 11 10 10 10 9 9 9 7 7 6 6 6 6
28 27 26 24 24 22 21 19 18 17 17 16 15 14 14 13 12 11 9 9 8 8 8 8 9 10 10 11 11 11 11 10 10 9 10 10 9 9 8 7 7 7 7 7
28 28 27 25 25 24 22 21 20 18 17 17 17 15 15 15 14 13 11 11 10 10 9 9 9 10 10 11 11 11 10 9 9 9 9 10 9 9 8 8 8 8 8 8
29 29 28 27 26 25 24 23 21 20 19 18 17 17 16 16 15 14 13 13 12 11 10 10 11 11 11 11 11 10 9 9 9 9 9 9 9 10 9 9 9 9 9 8
31 30 30 29 28 27 26 25 24 22 21 19 18 17 16 16 15 15 15 15 14 12 12 12 12 11 11 11 11 11 10 9 9 9 9 9 9 9 9 10 10 9 9 9
31 31 31 30 30 29 28 27 26 25 24 20 19 18 18 17 16 16 15 15 15 14 13 13 13 13 12 12 11 11 11 11 10 10 10 10 10 10 10 10 10 9 9 9
32 31 31 31 31 30 29 28 27 27 26 24 21 20 20 18 17 18 17 16 15 15 15 15 15 14 14 13 13 12 12 12 11 11 11 11 11 11 10 11 11 10 10 10
34 34 32 32 32 32 32 31 29 28 27 26 24 22 22 20 18 18 18 18 17 16 16 16 16 16 15 14 14 13 13 13 12 12 12 12 12 11 11 11 11 10 10 10
36 36 35 33 32 33 33 32 31 29 28 27 26 24 24 22 20 19 19 19 19 18 18 17 17 17 16 16 15 15 14 14 14 14 14 14 14 13 12 12 12 11 10 11
37 37 37 36 34 33 34 33 31 31 29 28 26 26 25 23 22 21 20 20 20 19 19 18 18 18 18 17 17 16 16 16 16 15 15 15 15 14 14 13 13 12 11 11
38 38 38 38 37 35 35 34 33 32 31 29 28 27 26 25 24 23 21 21 20 20 20 19 19 19 19 19 18 18 18 18 17 17 16 16 16 15 15 15 14 13 13 12
38 38 38 37 37 38 38 36 34 33 32 31 29 28 27 26 25 24 23 23 22 22 21 21 21 20 20 20 20 20 19 19 19 19 18 17 17 17 17 15 14 14 14 13
38 37 37 36 38 39 38 36 35 34 33 31 30 29 28 27 27 26 26 25 24 23 23 23 23 22 22 22 22 21 21 21 21 20 19 18 18 18 17 16 16 15 15 16
37 37 37 37 37 37 38 37 35 34 34 33 31 30 29 28 28 27 26 26 25 24 24 24 24 24 23 23 22 22 22 23 23 22 21 20 20 20 19 18 18 18 18 18
37 37 38 38 37 37 37 36 35 34 35 33 32 31 30 29 28 27 27 27 26 25 25 24 24 24 24 23 24 24 23 23 23 22 22 23 23 22 21 21 21 20 20 20
38 39 39 39 38 37 37 36 35 35 34 32 32 31 30 30 29 28 28 28 27 26 25 24 24 25 25 24 24 23 23 23 23 23 23 23 24 23 22 22 22 21 22 22
38 39 40 39 38 37 37 36 35 35 34 33 32 31 31 30 29 29 29 29 27 25 25 24 24 25 25 25 24 23 23 23 24 24 24 24 24 23 22 23 23 23 23 24
39 38 39 39 38 37 37 36 35 34 34 33 33 31 31 30 30 29 29 28 27 27 26 26 26 26 26 25 24 24 24 24 24 25 25 24 23 23 24 24 24 24 24 24
37 38 38 38 38 38 37 36 36 34 33 33 33 32 31 31 30 30 29 29 29 29 28 27 27 28 27 27 26 25 25 25 25 26 26 25 25 24 25 25 25 25 25 26
35 36 36 36 37 37 37 36 36 35 34 33 33 32 32 32 31 30 30 30 30 30 30 29 29 28 28 28 28 27 26 26 27 27 27 26 26 26 27 27 27 27 27 28
34 35 36 36 36 36 35 35 35 35 34 33 33 33 33 33 32 31 31 31 31 31 31 31 31 30 29 30 29 29 28 28 29 28 28 29 28 28 29 29 29 29 30 29
Wind_Direction
212 211 213 215 210 214 213 212 213 214 222 219 214 66 10 16 21 24 22 24 25 26 28 28 29 29 29 30 29 29 30 32 33 34 34 34 34 36 36 40 42 40 43 50
215 216 217 218 216 216 217 217 221 226 234 237 238 252 285 329 354 7 14 15 16 18 21 22 22 24 24 25 27 27 26 27 29 31 31 31 32 32 32 32 34 34 32 38
219 222 222 223 223 222 223 224 227 233 239 246 249 262 263 284 313 331 349 360 4 5 9 12 14 16 18 20 23 25 23 21 23 26 29 30 30 30 29 28 31 33 28 25
221 223 224 226 228 229 233 233 234 236 240 246 248 254 268 270 285 298 311 328 344 349 353 357 359 4 8 10 14 19 20 20 18 19 23 25 25 25 24 22 22 25 25 26
224 225 226 228 230 233 236 239 238 239 243 245 250 248 259 265 270 282 289 300 320 331 336 341 344 350 357 360 3 9 12 14 15 15 17 16 14 16 17 17 14 12 15 15
225 225 227 229 232 234 237 240 244 245 247 249 248 248 255 259 266 272 279 288 300 312 320 325 330 337 344 349 353 357 1 5 10 11 12 9 7 7 6 5 1 359 2 1
226 226 227 229 231 234 236 239 244 247 247 250 250 249 249 253 263 267 271 282 291 299 308 312 318 327 334 338 343 347 348 351 358 2 3 3 1 2 2 354 347 344 345 345
227 228 228 229 232 236 237 237 238 242 247 251 254 251 251 256 260 265 270 277 283 287 293 301 309 317 323 329 334 336 337 340 348 353 356 358 359 358 353 348 342 338 337 336
227 230 231 231 233 235 238 237 238 244 245 247 253 254 254 255 259 264 270 275 274 278 284 292 300 305 312 315 321 324 325 328 333 340 345 348 351 350 348 343 339 339 337 335
226 231 232 232 234 235 236 238 239 240 242 246 253 257 256 255 259 262 267 271 272 273 275 282 289 294 303 309 309 314 315 319 323 330 336 338 336 338 339 340 338 336 335 337
226 229 232 232 233 235 236 237 238 241 242 244 251 257 258 260 261 264 267 268 270 271 272 276 279 285 291 297 300 301 304 310 313 316 321 325 326 330 333 334 334 333 331 331
226 228 232 234 234 235 236 237 239 242 245 245 246 254 258 260 263 265 266 265 268 271 273 274 274 277 282 286 290 292 296 301 303 305 308 313 318 323 327 330 331 328 327 327
226 228 230 234 235 234 235 236 238 240 245 246 247 252 256 258 260 263 263 263 265 269 271 273 272 272 275 279 283 287 289 293 296 299 300 303 309 314 317 321 323 322 320 321
230 230 230 232 237 238 238 238 239 240 242 246 247 249 254 255 258 261 260 262 265 268 269 269 268 270 272 275 278 284 285 289 291 294 297 298 300 303 307 311 313 313 313 312
231 232 232 232 234 238 240 240 240 242 243 245 248 248 250 252 255 258 259 261 264 266 267 265 265 267 268 270 272 277 279 282 285 289 291 294 296 296 298 302 305 306 306 306
232 232 233 234 234 236 238 239 240 242 244 246 248 249 250 250 252 255 258 260 262 263 262 261 262 264 266 267 269 272 274 277 279 282 287 290 293 294 296 297 299 302 302 301
232 233 234 236 237 237 238 238 241 243 245 247 249 249 249 249 250 252 256 258 259 259 259 258 260 263 264 265 266 268 271 273 274 277 281 285 288 291 292 291 296 297 297 300
233 233 234 235 237 238 239 239 240 243 245 247 248 249 250 250 251 251 253 254 256 257 258 259 261 263 263 263 264 265 268 271 271 271 276 279 283 287 288 287 291 295 297 298
232 233 234 234 237 240 240 239 239 241 243 246 248 248 249 250 251 251 251 252 255 257 259 259 260 261 261 262 262 264 266 270 272 275 273 274 277 280 284 287 291 294 295 295
232 232 234 236 236 239 241 241 240 242 245 245 247 247 248 249 250 250 250 251 254 256 257 259 260 260 261 262 262 264 265 266 269 272 273 275 277 281 282 287 287 289 291 293
232 232 233 236 238 239 239 241 241 243 245 246 248 247 247 248 249 249 249 251 253 254 256 257 258 259 260 262 264 264 263 264 267 270 273 274 277 281 282 284 285 286 288 289
233 234 234 234 236 237 239 242 242 245 245 246 247 247 247 247 247 248 249 250 252 254 255 255 257 259 259 261 263 265 265 264 265 268 271 274 275 276 278 281 282 284 284 286
232 233 234 235 236 238 240 242 243 245 246 246 246 246 246 246 246 246 248 249 250 252 254 256 257 259 260 261 263 266 266 266 265 268 269 272 273 274 276 278 280 281 281 283
233 233 234 236 236 238 240 242 243 244 246 245 245 245 246 246 247 247 246 247 249 252 254 256 257 259 260 261 262 265 265 265 266 268 268 270 272 273 274 276 278 280 282 282
232 232 233 235 237 238 240 243 243 244 244 244 243 244 245 246 246 246 247 249 250 251 254 255 257 258 258 260 261 262 264 265 266 268 269 269 270 271 273 275 277 279 280 281
231 232 233 234 236 238 240 242 242 242 242 243 243 243 244 245 247 248 249 249 250 253 254 256 256 257 260 261 262 264 265 266 266 266 268 268 268 269 271 274 277 278 279 278
Height
5927 5930 5933 5935 5937 5940 5941 5942 5943 5943 5943 5943 5943 5943 5943 5941 5940 5939 5938 5936 5935 5933 5931 5929 5927 5925 5923 5920 5918 5915 5913 5911 5909 5907 5905 5904 5903 5902 5901 5900 5899 5898 5897 5896
5925 5927 5930 5931 5934 5936 5938 5940 5941 5942 5942 5942 5943 5943 5943 5942 5941 5940 5939 5937 5936 5934 5932 5930 5928 5926 5924 5922 5919 5917 5914 5912 5910 5908 5907 5905 5904 5903 5902 5901 5900 5899 5897 5896
5921 5924 5926 5929 5931 5933 5936 5938 5939 5940 5940 5941 5942 5943 5942 5941 5941 5940 5939 5938 5936 5935 5933 5931 5929 5927 5925 5922 5920 5918 5915 5913 5911 5909 5908 5907 5905 5904 5903 5901 5900 5899 5898 5897
5916 5919 5922 5925 5928 5930 5932 5934 5936 5937 5939 5940 5941 5943 5941 5940 5940 5939 5939 5937 5936 5935 5933 5932 5930 5928 5926 5923 5921 5918 5916 5914 5912 5910 5909 5908 5906 5905 5903 5902 5901 5900 5899 5897
5912 5915 5918 5921 5924 5927 5929 5931 5933 5934 5936 5938 5938 5939 5942 5938 5938 5938 5937 5937 5936 5935 5933 5931 5930 5928 5926 5924 5922 5919 5917 5915 5913 5911 5910 5908 5907 5905 5904 5902 5901 5900 5899 5898
5907 5911 5914 5917 5920 5922 5924 5927 5929 5931 5933 5934 5935 5936 5938 5936 5936 5936 5936 5935 5935 5934 5932 5931 5929 5928 5926 5924 5922 5920 5918 5916 5914 5912 5910 5909 5907 5906 5904 5903 5901 5900 5899 5898
5901 5905 5909 5912 5915 5918 5921 5924 5926 5928 5929 5931 5931 5932 5934 5933 5933 5933 5934 5933 5933 5932 5931 5930 5928 5927 5926 5924 5922 5920 5918 5916 5914 5912 5911 5909 5907 5906 5904 5902 5901 5900 5899 5898
5897 5900 5904 5907 5911 5913 5916 5920 5923 5926 5927 5928 5927 5928 5930 5929 5929 5930 5931 5931 5930 5930 5929 5928 5927 5926 5924 5923 5921 5919 5917 5916 5914 5912 5910 5909 5907 5905 5904 5902 5900 5899 5898 5897
5892 5896 5899 5902 5905 5909 5911 5914 5918 5920 5921 5923 5924 5924 5925 5925 5926 5927 5927 5927 5927 5927 5927 5926 5925 5924 5923 5921 5920 5918 5916 5915 5913 5911 5910 5908 5906 5905 5903 5901 5900 5898 5897 5895
5885 5889 5892 5896 5899 5902 5906 5909 5912 5914 5916 5918 5920 5921 5922 5921 5922 5923 5923 5923 5924 5924 5924 5923 5922 5921 5920 5919 5918 5916 5914 5913 5911 5910 5908 5907 5905 5904 5902 5900 5899 5897 5896 5894
5879 5883 5886 5890 5893 5897 5900 5903 5905 5908 5911 5914 5916 5919 5917 5917 5918 5919 5919 5919 5920 5920 5920 5920 5919 5919 5917 5916 5915 5914 5912 5911 5909 5908 5907 5905 5904 5903 5901 5899 5897 5896 5894 5893
5872 5877 5880 5884 5887 5890 5893 5897 5900 5903 5904 5907 5911 5915 5911 5912 5913 5914 5914 5915 5915 5915 5916 5915 5915 5915 5914 5913 5912 5911 5910 5909 5907 5906 5905 5903 5902 5901 5899 5898 5896 5894 5893 5892
5864 5869 5873 5877 5881 5883 5886 5889 5893 5896 5898 5900 5904 5909 5906 5907 5907 5908 5909 5910 5910 5911 5911 5911 5911 5911 5910 5909 5909 5908 5907 5906 5905 5904 5903 5901 5900 5899 5898 5896 5894 5893 5891 5890
5857 5862 5867 5872 5874 5876 5879 5882 5886 5889 5891 5894 5897 5900 5900 5901 5902 5903 5904 5905 5905 5906 5906 5906 5906 5906 5906 5905 5905 5904 5904 5903 5902 5901 5900 5899 5898 5897 5895 5894 5892 5891 5889 5888
5849 5854 5858 5862 5865 5869 5872 5875 5878 5881 5885 5888 5891 5892 5894 5895 5896 5897 5898 5899 5900 5900 5901 5901 5901 5901 5901 5901 5901 5900 5900 5899 5898 5897 5897 5896 5895 5894 5893 5891 5890 5888 5887 5886
5840 5845 5849 5853 5857 5860 5863 5867 5870 5874 5877 5880 5882 5885 5887 5888 5889 5890 5892 5893 5893 5894 5895 5895 5896 5896 5896 5896 5896 5896 5895 5895 5894 5894 5893 5892 5891 5890 5889 5888 5887 5885 5884 5883
5832 5837 5841 5846 5849 5851 5855 5860 5863 5866 5869 5872 5874 5878 5879 5881 5882 5884 5885 5886 5887 5888 5889 5889 5890 5890 5890 5890 5890 5890 5890 5890 5890 5889 5889 5888 5887 5886 5885 5884 5883 5882 5881 5880
5824 5828 5833 5837 5840 5842 5850 5852 5855 5858 5861 5864 5866 5869 5871 5873 5875 5876 5878 5879 5880 5881 5882 5883 5884 5884 5884 5885 5885 5885 5885 5884 5884 5883 5884 5883 5883 5882 5881 5880 5879 5878 5877 5876
5816 5820 5824 5828 5831 5835 5840 5843 5847 5850 5853 5856 5859 5861 5863 5865 5867 5869 5870 5871 5873 5874 5875 5876 5877 5878 5878 5878 5879 5879 5879 5879 5878 5878 5878 5878 5877 5876 5876 5875 5874 5873 5872 5871
5807 5811 5816 5820 5824 5828 5833 5836 5839 5843 5845 5848 5851 5853 5855 5857 5860 5862 5863 5865 5866 5868 5869 5869 5870 5871 5872 5872 5872 5872 5873 5873 5873 5873 5873 5872 5871 5871 5870 5870 5869 5868 5867 5866
5798 5802 5806 5811 5815 5820 5824 5827 5831 5835 5838 5840 5842 5845 5848 5850 5853 5855 5856 5857 5859 5861 5862 5862 5863 5864 5865 5866 5866 5866 5866 5867 5867 5867 5867 5867 5866 5866 5865 5864 5863 5862 5861 5860
5790 5794 5798 5802 5807 5814 5815 5819 5823 5826 5829 5832 5834 5837 5840 5842 5844 5846 5848 5850 5852 5853 5854 5855 5857 5857 5858 5859 5859 5860 5860 5861 5861 5861 5861 5860 5860 5859 5859 5858 5857 5856 5855 5854
5781 5786 5790 5795 5800 5803 5806 5809 5813 5817 5820 5823 5826 5828 5831 5834 5836 5838 5840 5842 5844 5846 5847 5849 5850 5851 5851 5852 5853 5853 5853 5853 5854 5854 5854 5854 5853 5853 5852 5852 5851 5850 5849 5848
5772 5776 5781 5785 5789 5793 5797 5800 5804 5807 5811 5814 5817 5820 5823 5825 5828 5830 5833 5835 5836 5838 5839 5841 5842 5843 5844 5844 5845 5846 5846 5846 5847 5847 5847 5847 5846 5846 5846 5845 5844 5843 5842 5841
5764 5769 5772 5776 5780 5784 5788 5791 5795 5799 5802 5805 5808 5811 5814 5817 5819 5822 5825 5826 5828 5830 5831 5833 5834 5835 5836 5837 5837 5838 5839 5839 5839 5840 5839 5839 5839 5839 5838 5837 5837 5836 5835 5834
5756 5760 5765 5768 5772 5776 5780 5783 5787 5790 5793 5796 5800 5802 5805 5808 5811 5813 5816 5818 5820 5822 5823 5824 5825 5827 5828 5828 5829 5830 5831 5831 5831 5831 5831 5831 5831 5830 5830 5829 5829 5828 5827 5826